| time (UTC) | temp C | wind direction | speed KPH | gust KPH | rain 1hr cm | rain 24hr cm | rain mn cm | humidity % | barometer mb |
| 20260503021745 | -17 | 90 | 0.0 | 3.2 | 0.00 | 0.00 | 0.00 | 1018.6 | |
| 20260503020940 | -17 | 90 | 0.0 | 3.2 | 0.00 | 0.00 | 0.00 | 1018.6 | |
| 20260503020131 | -17 | 90 | 0.0 | 1.6 | 0.00 | 0.00 | 0.00 | 1018.5 | |
| 20260503015328 | -17 | 45 | 0.0 | 4.8 | 0.00 | 0.00 | 0.00 | 1018.4 | |
| 20260503014525 | -17 | 90 | 1.6 | 1.6 | 0.00 | 0.00 | 0.00 | 1018.5 | |
| 20260503013723 | -17 | 90 | 0.0 | 1.6 | 0.00 | 0.00 | 0.00 | 1018.5 | |
| 20260503012920 | -17 | 90 | 1.6 | 1.6 | 0.00 | 0.00 | 0.00 | 1018.3 | |
| 20260503012115 | -17 | 45 | 1.6 | 3.2 | 0.00 | 0.00 | 0.00 | 1018.3 | |
| 20260503011310 | -17 | 90 | 0.0 | 3.2 | 0.00 | 0.00 | 0.00 | 1018.3 | |
| 20260503010505 | -17 | 90 | 0.0 | 1.6 | 0.00 | 0.00 | 0.00 | 1018.3 | |
| 20260503005702 | -17 | 90 | 0.0 | 1.6 | 0.00 | 0.00 | 0.00 | 1018.4 | |
| 20260503004854 | -17 | 90 | 0.0 | 1.6 | 0.00 | 0.00 | 0.00 | 1018.3 | |
| 20260503004050 | -17 | 90 | 0.0 | 0.0 | 0.00 | 0.00 | 0.00 | 1018.4 | |
| 20260503003244 | -17 | 90 | 0.0 | 3.2 | 0.00 | 0.00 | 0.00 | 1018.5 | |
| 20260503002441 | -17 | 45 | 3.2 | 3.2 | 0.00 | 0.00 | 0.00 | 1018.6 | |
| 20260503001636 | -17 | 90 | 1.6 | 1.6 | 0.00 | 0.00 | 0.00 | 1018.6 | |
| 20260503000833 | -17 | 45 | 0.0 | 3.2 | 0.00 | 0.00 | 0.00 | 1018.6 | |
| 20260503000028 | -17 | 90 | 0.0 | 3.2 | 0.00 | 0.00 | 0.00 | 1018.6 | |
| 20260502235225 | -17 | 45 | 1.6 | 3.2 | 0.00 | 0.00 | 0.00 | 1018.8 | |
| 20260502234424 | -17 | 45 | 0.0 | 3.2 | 0.00 | 0.00 | 0.00 | 1018.7 | |
| 20260502233619 | -17 | 90 | 1.6 | 1.6 | 0.00 | 0.00 | 0.00 | 1018.8 | |
| 20260502232817 | -17 | 90 | 0.0 | 3.2 | 0.00 | 0.00 | 0.00 | 1018.7 | |
| 20260502232013 | -17 | 90 | 1.6 | 3.2 | 0.00 | 0.00 | 0.00 | 1018.7 | |
| 20260502231206 | -17 | 90 | 0.0 | 1.6 | 0.00 | 0.00 | 0.00 | 1018.8 | |
| 20260502230405 | -17 | 90 | 0.0 | 1.6 | 0.00 | 0.00 | 0.00 | 1018.8 | |
| 20260502225600 | -17 | 90 | 0.0 | 3.2 | 0.00 | 0.00 | 0.00 | 1018.8 | |
| 20260502224727 | -17 | 45 | 1.6 | 3.2 | 0.00 | 0.00 | 0.00 | 1018.9 | |
| 20260502223923 | -17 | 90 | 0.0 | 3.2 | 0.00 | 0.00 | 0.00 | 1018.7 | |
| 20260502223119 | -17 | 90 | 0.0 | 1.6 | 0.00 | 0.00 | 0.00 | 1018.7 | |
| 20260502222314 | -17 | 90 | 1.6 | 3.2 | 0.00 | 0.00 | 0.00 | 1018.8 | |
| 20260502221510 | -17 | 45 | 0.0 | 1.6 | 0.00 | 0.00 | 0.00 | 1018.9 | |
| 20260502220708 | -17 | 90 | 0.0 | 3.2 | 0.00 | 0.00 | 0.00 | 1018.9 | |
| 20260502215905 | -17 | 45 | 0.0 | 1.6 | 0.00 | 0.00 | 0.00 | 1018.9 | |
| 20260502215103 | -17 | 90 | 0.0 | 1.6 | 0.00 | 0.00 | 0.00 | 1018.9 | |
| 20260502214257 | -17 | 45 | 0.0 | 3.2 | 0.00 | 0.00 | 0.00 | 1018.9 | |
| 20260502213454 | -17 | 45 | 0.0 | 3.2 | 0.00 | 0.00 | 0.00 | 1018.8 | |
| 20260502212641 | -17 | 90 | 0.0 | 1.6 | 0.00 | 0.00 | 0.00 | 1019.0 | |
| 20260502211828 | -17 | 90 | 0.0 | 3.2 | 0.00 | 0.00 | 0.00 | 1019.0 | |
| 20260502211020 | -17 | 45 | 1.6 | 1.6 | 0.00 | 0.00 | 0.00 | 1019.0 | |
| 20260502210215 | -17 | 45 | 0.0 | 3.2 | 0.00 | 0.00 | 0.00 | 1018.9 | |
| 20260502205410 | -17 | 90 | 1.6 | 1.6 | 0.00 | 0.00 | 0.00 | 1018.9 | |
| 20260502204608 | -17 | 90 | 1.6 | 3.2 | 0.00 | 0.00 | 0.00 | 1018.9 | |
| 20260502203806 | -17 | 45 | 0.0 | 1.6 | 0.00 | 0.00 | 0.00 | 1019.0 | |
| 20260502203002 | -17 | 90 | 1.6 | 3.2 | 0.00 | 0.00 | 0.00 | 1019.0 | |
| 20260502202202 | -17 | 45 | 0.0 | 1.6 | 0.00 | 0.00 | 0.00 | 1018.9 | |
| 20260502201359 | -17 | 45 | 0.0 | 1.6 | 0.00 | 0.00 | 0.00 | 1018.9 | |
| 20260502200557 | -17 | 45 | 1.6 | 3.2 | 0.00 | 0.00 | 0.00 | 1018.8 | |
| 20260502195754 | -17 | 45 | 1.6 | 1.6 | 0.00 | 0.00 | 0.00 | 1018.8 | |
| 20260502194953 | -17 | 45 | 0.0 | 1.6 | 0.00 | 0.00 | 0.00 | 1018.7 | |
| 20260502194148 | -17 | 90 | 0.0 | 3.2 | 0.00 | 0.00 | 0.00 | 1018.7 | |
| 20260502193345 | -17 | 68 | 0.0 | 3.2 | 0.00 | 0.00 | 0.00 | 1018.7 | |
| 20260502192541 | -17 | 90 | 0.0 | 3.2 | 0.00 | 0.00 | 0.00 | 1018.7 | |
| 20260502191735 | -17 | 45 | 1.6 | 3.2 | 0.00 | 0.00 | 0.00 | 1018.6 | |
| 20260502190927 | -17 | 45 | 1.6 | 3.2 | 0.00 | 0.00 | 0.00 | 1018.5 | |
| 20260502190125 | -17 | 315 | 0.0 | 1.6 | 0.00 | 0.00 | 0.00 | 1018.4 | |
| 20260502185320 | -17 | 315 | 1.6 | 3.2 | 0.00 | 0.00 | 0.00 | 1018.2 | |
| 20260502184515 | -17 | 90 | 0.0 | 0.0 | 0.00 | 0.00 | 0.00 | 1018.0 | |
| 20260502183714 | -17 | 315 | 0.0 | 1.6 | 0.00 | 0.00 | 0.00 | 1017.8 | |
| 20260502182911 | -17 | 45 | 0.0 | 1.6 | 0.00 | 0.00 | 0.00 | 1017.7 | |
| 20260502182107 | -17 | 90 | 0.0 | 1.6 | 0.00 | 0.00 | 0.00 | 1017.5 | |
| 20260502181301 | -17 | 45 | 0.0 | 1.6 | 0.00 | 0.00 | 0.00 | 1017.3 | |
| 20260502180458 | -17 | 270 | 0.0 | 1.6 | 0.00 | 0.00 | 0.00 | 1017.1 | |
| 20260502163552 | -17 | 90 | 0.0 | 1.6 | 0.00 | 0.00 | 0.00 | 1015.8 | |
| 20260502162739 | -17 | 90 | 1.6 | 3.2 | 0.00 | 0.00 | 0.00 | 1016.0 | |
| 20260502161928 | -17 | 315 | 0.0 | 1.6 | 0.00 | 0.00 | 0.00 | 1016.0 | |
| 20260502161125 | -17 | 0 | 1.6 | 4.8 | 0.00 | 0.00 | 0.00 | 1016.1 | |
| 20260502160320 | -17 | 90 | 1.6 | 4.8 | 0.00 | 0.00 | 0.00 | 1016.1 | |
| 20260502152256 | -17 | 45 | 0.0 | 4.8 | 0.00 | 0.00 | 0.00 | 1016.4 | |
| 20260502151448 | -17 | 45 | 3.2 | 3.2 | 0.00 | 0.00 | 0.00 | 1016.5 | |
| 20260502150644 | -17 | 90 | 0.0 | 6.4 | 0.00 | 0.00 | 0.00 | 1016.4 | |
| 20260502130524 | -17 | 0 | 1.6 | 6.4 | 0.00 | 0.00 | 0.00 | 1017.5 | |
| 20260502123311 | -17 | 315 | 0.0 | 8.0 | 0.00 | 0.00 | 0.00 | 1017.9 | |
| 20260502122508 | -17 | 225 | 1.6 | 8.0 | 0.00 | 0.00 | 0.00 | 1017.9 | |
| 20260502121705 | -17 | 113 | 1.6 | 4.8 | 0.00 | 0.00 | 0.00 | 1018.0 | |
| 20260502120859 | -17 | 338 | 1.6 | 8.0 | 0.00 | 0.00 | 0.00 | 1018.1 | |
| 20260502115248 | -17 | 45 | 3.2 | 6.4 | 0.00 | 0.00 | 0.00 | 1018.3 | |
| 20260502114441 | -17 | 90 | 3.2 | 8.0 | 0.00 | 0.00 | 0.00 | 1018.6 | |
| 20260502113636 | -17 | 90 | 1.6 | 8.0 | 0.00 | 0.00 | 0.00 | 1018.6 | |
| 20260502112832 | -17 | 90 | 3.2 | 6.4 | 0.00 | 0.00 | 0.00 | 1018.7 | |
| 20260502112026 | -17 | 90 | 3.2 | 8.0 | 0.00 | 0.00 | 0.00 | 1018.9 | |
| 20260502111222 | -17 | 90 | 3.2 | 8.0 | 0.00 | 0.00 | 0.00 | 1019.0 | |
| 20260502110414 | -17 | 45 | 3.2 | 6.4 | 0.00 | 0.00 | 0.00 | 1019.1 | |
| 20260502105607 | -17 | 45 | 3.2 | 6.4 | 0.00 | 0.00 | 0.00 | 1019.3 | |
| 20260502104755 | -17 | 90 | 0.0 | 8.0 | 0.00 | 0.00 | 0.00 | 1019.5 | |
| 20260502103950 | -17 | 90 | 3.2 | 9.7 | 0.00 | 0.00 | 0.00 | 1019.5 | |
| 20260502103143 | -17 | 180 | 3.2 | 6.4 | 0.00 | 0.00 | 0.00 | 1019.7 | |
| 20260502102330 | -17 | 315 | 1.6 | 6.4 | 0.00 | 0.00 | 0.00 | 1019.8 | |
| 20260502101518 | -17 | 135 | 6.4 | 8.0 | 0.00 | 0.00 | 0.00 | 1019.8 | |
| 20260502100714 | -17 | 135 | 1.6 | 6.4 | 0.00 | 0.00 | 0.00 | 1019.6 | |
| 20260502091042 | -17 | 270 | 1.6 | 6.4 | 0.00 | 0.00 | 0.00 | 1020.7 | |
| 20260502090234 | -17 | 180 | 1.6 | 4.8 | 0.00 | 0.00 | 0.00 | 1020.7 | |
| 20260502070916 | -17 | 293 | 6.4 | 6.4 | 0.00 | 0.00 | 0.00 | 1022.0 | |
| 20260502070108 | -17 | 90 | 1.6 | 4.8 | 0.00 | 0.00 | 0.00 | 1022.1 | |
| 20260502065300 | -17 | 315 | 0.0 | 3.2 | 0.00 | 0.00 | 0.00 | 1022.4 | |
| 20260502064453 | -17 | 270 | 1.6 | 4.8 | 0.00 | 0.00 | 0.00 | 1022.5 | |
| 20260502063645 | -17 | 270 | 1.6 | 3.2 | 0.00 | 0.00 | 0.00 | 1022.8 | |
| 20260502062839 | -17 | 225 | 0.0 | 0.0 | 0.00 | 0.00 | 0.00 | 1023.1 | |
| 20260502062034 | -17 | 180 | 0.0 | 0.0 | 0.00 | 0.00 | 0.00 | 1023.5 | |
| 20260502061226 | -17 | 90 | 0.0 | 0.0 | 0.00 | 0.00 | 0.00 | 1023.6 | |
| 20260502060417 | -17 | 90 | 0.0 | 0.0 | 0.00 | 0.00 | 0.00 | 1024.0 | |
| 20260502055615 | -17 | 90 | 0.0 | 0.0 | 0.00 | 0.00 | 0.00 | 1024.1 | |
| 20260502054809 | -17 | 90 | 0.0 | 0.0 | 0.00 | 0.00 | 0.00 | 1024.2 | |
| 20260502054000 | -17 | 90 | 0.0 | 0.0 | 0.00 | 0.00 | 0.00 | 1024.5 | |
| 20260502053155 | -17 | 90 | 0.0 | 0.0 | 0.00 | 0.00 | 0.00 | 1024.6 | |
| 20260502052351 | -17 | 90 | 0.0 | 0.0 | 0.00 | 0.00 | 0.00 | 1024.6 | |
| 20260502051547 | -17 | 90 | 0.0 | 0.0 | 0.00 | 0.00 | 0.00 | 1024.8 | |
| 20260502050743 | -17 | 90 | 0.0 | 0.0 | 0.00 | 0.00 | 0.00 | 1025.0 | |
| 20260502045936 | -17 | 90 | 0.0 | 1.6 | 0.00 | 0.00 | 0.00 | 1025.1 | |
| 20260502045129 | -17 | 90 | 0.0 | 0.0 | 0.00 | 0.00 | 0.00 | 1025.2 | |
| 20260502044324 | -17 | 90 | 0.0 | 0.0 | 0.00 | 0.00 | 0.00 | 1025.3 | |
| 20260502043521 | -17 | 90 | 0.0 | 1.6 | 0.00 | 0.00 | 0.00 | 1025.4 | |
| 20260502042718 | -17 | 45 | 1.6 | 1.6 | 0.00 | 0.00 | 0.00 | 1025.5 | |
| 20260502041914 | -17 | 90 | 0.0 | 0.0 | 0.00 | 0.00 | 0.00 | 1025.5 | |
| 20260502041110 | -17 | 90 | 0.0 | 0.0 | 0.00 | 0.00 | 0.00 | 1025.5 | |
| 20260502040309 | -17 | 90 | 0.0 | 0.0 | 0.00 | 0.00 | 0.00 | 1025.3 | |
| 20260502035459 | -17 | 90 | 0.0 | 0.0 | 0.00 | 0.00 | 0.00 | 1025.5 | |
| 20260502034650 | -17 | 90 | 0.0 | 1.6 | 0.00 | 0.00 | 0.00 | 1025.4 | |
| 20260502033846 | -17 | 90 | 0.0 | 1.6 | 0.00 | 0.00 | 0.00 | 1025.5 | |
| 20260502033042 | -17 | 90 | 1.6 | 1.6 | 0.00 | 0.00 | 0.00 | 1025.5 | |
| 20260502032238 | -17 | 90 | 0.0 | 1.6 | 0.00 | 0.00 | 0.00 | 1025.4 | |
| 20260502031434 | -17 | 90 | 0.0 | 1.6 | 0.00 | 0.00 | 0.00 | 1025.4 | |
| 20260502030628 | -17 | 90 | 1.6 | 1.6 | 0.00 | 0.00 | 0.00 | 1025.5 | |
| 20260502025825 | -17 | 90 | 1.6 | 1.6 | 0.00 | 0.00 | 0.00 | 1025.5 | |
| 20260502025023 | -17 | 45 | 0.0 | 0.0 | 0.00 | 0.00 | 0.00 | 1025.6 | |
| 20260502024218 | -17 | 90 | 0.0 | 0.0 | 0.00 | 0.00 | 0.00 | 1025.5 | |
| 20260502023412 | -17 | 90 | 0.0 | 3.2 | 0.00 | 0.00 | 0.00 | 1025.5 | |
| 20260502022607 | -17 | 90 | 3.2 | 3.2 | 0.00 | 0.00 | 0.00 | 1025.5 |